Location: *
(44.3526°S, 44.9014°W)
Time: 20:46:04
(UTC+00:00)

SL-08 ROCKET BODY - Pass Details

Date: 13 May 2025
Orbit: 895 x 961 km, 82.9° (Epoch: 17 June)

Event Time Altitude Azimuth Distance (km) Brightness Sun altitude
Rises 21:35:39 0° 352° (N) 3,580 7.7 -19.9°
Reaches altitude 10° 21:38:07 10° 351° (N) 2,634 6.9 -20.3°
Maximum altitude 21:44:09 84° 263° (W) 937 4.4 -21.4°
Drops below altitude 10° 21:50:09 10° 173° (S) 2,625 6.6 -22.5°
Sets 21:52:37 0° 172° (S) 3,566 7.3 -22.9°
